Total_Precipitation_Accumulation
2.61 2.74 2.53 2.64 2.42 2.53 2.89 3.20 3.24 3.44 3.70 3.65 3.20 2.95 2.99 2.94 2.69 2.64 2.87 3.13 3.16 3.08 3.28 3.36 3.05 2.90 2.84 2.48 2.18 2.05 1.87 1.74 1.55 1.30 1.13 1.04 0.93 0.74 0.55 0.47 0.46 0.48 0.45
2.82 2.90 2.76 2.74 2.47 2.49 2.79 3.16 3.25 3.58 3.67 3.72 3.20 2.85 2.83 2.82 2.56 2.44 2.54 3.05 3.10 2.95 3.02 3.32 3.41 3.33 3.19 2.90 2.60 2.35 2.09 1.90 1.75 1.48 1.21 1.07 1.00 0.91 0.83 0.71 0.62 0.59 0.51
3.02 3.19 3.11 2.73 2.53 2.64 2.87 2.89 3.05 3.55 3.43 3.41 3.30 3.19 3.12 2.95 2.68 2.61 2.54 2.73 2.62 2.71 2.88 3.03 3.30 3.54 3.62 3.50 3.27 2.92 2.55 2.15 1.86 1.55 1.26 1.11 1.04 0.95 0.90 0.86 0.78 0.73 0.64
2.71 2.96 2.74 2.37 2.46 2.69 2.88 2.90 2.91 3.29 3.46 3.51 3.57 3.41 3.24 3.05 2.66 2.56 2.55 2.51 2.47 2.22 2.47 2.76 3.09 3.40 3.81 4.05 4.07 3.92 3.47 2.75 2.16 1.78 1.46 1.30 1.19 1.04 0.88 0.85 0.86 0.84 0.69
1.92 2.22 2.20 2.14 2.15 2.42 2.48 2.19 2.45 2.80 3.05 3.20 2.99 2.90 2.58 2.38 2.28 2.15 2.14 2.06 2.25 2.37 2.48 2.46 2.79 3.07 3.67 4.46 4.94 4.91 4.42 3.59 2.80 2.36 2.06 1.80 1.60 1.35 1.07 0.94 0.94 0.90 0.79
1.72 1.97 2.00 1.85 1.79 1.99 2.08 2.21 2.55 2.65 2.58 2.65 2.33 2.31 2.26 2.07 2.05 2.00 1.82 1.84 1.98 1.94 2.13 2.37 2.69 2.54 3.05 3.89 4.58 4.86 4.74 4.25 3.46 2.86 2.56 2.40 2.27 1.90 1.43 1.21 1.13 1.03 0.92
1.85 2.07 1.91 1.95 1.82 1.86 1.91 1.96 2.21 2.31 2.11 2.28 2.63 2.44 2.12 1.87 1.87 1.78 1.72 1.81 1.83 1.88 2.03 2.41 2.68 2.77 2.67 2.70 3.06 3.75 4.38 4.65 4.38 3.74 3.14 2.79 2.67 2.29 1.76 1.55 1.36 1.24 1.20
1.84 1.74 1.94 1.77 1.70 1.91 1.88 1.95 2.17 2.17 1.93 2.08 2.48 2.63 2.36 2.25 1.87 1.36 1.53 1.63 1.68 1.94 2.01 2.03 2.27 2.72 2.76 2.94 2.35 2.62 3.65 4.37 4.83 4.80 4.16 3.46 3.07 2.63 2.16 1.96 1.74 1.55 1.46
1.58 1.63 1.62 1.53 1.64 1.56 1.76 1.91 2.00 2.20 2.18 1.95 1.95 2.36 2.33 2.29 2.06 1.56 1.32 1.40 1.66 1.91 1.87 1.93 1.97 2.29 2.59 2.99 2.88 2.42 2.62 3.11 4.09 4.99 5.01 4.23 3.32 2.69 2.41 2.31 2.23 2.01 1.81
1.57 1.55 1.50 1.60 1.63 1.50 1.78 1.53 1.68 2.02 2.18 1.99 1.94 1.86 1.92 2.10 2.15 2.00 1.69 1.44 1.56 1.65 1.75 1.78 1.94 2.23 2.44 2.74 2.84 2.28 1.93 2.14 3.02 4.12 4.80 4.72 3.99 3.14 2.67 2.72 2.94 2.78 2.41
1.63 1.40 1.47 1.68 1.73 1.60 1.63 1.62 1.81 1.82 1.90 1.93 1.90 1.86 2.02 2.07 1.91 1.97 1.97 1.82 1.70 1.43 1.56 1.83 2.03 2.16 2.30 2.53 2.80 2.47 2.28 2.08 2.14 2.63 3.27 3.84 4.07 3.77 3.39 3.35 3.67 3.86 3.67
1.58 1.45 1.56 1.82 1.80 1.76 1.72 1.69 1.70 1.73 1.91 2.04 2.00 1.88 1.95 2.03 2.02 2.13 1.94 1.87 1.89 1.64 1.76 2.04 2.12 2.18 2.14 2.29 2.32 2.30 2.21 2.09 1.99 1.97 2.18 2.57 3.07 3.40 3.47 3.63 4.04 4.44 4.59
1.38 1.46 1.53 1.74 1.75 1.75 1.67 1.83 1.85 1.77 1.89 1.97 1.97 1.92 1.83 1.75 1.88 2.06 2.11 1.95 1.94 1.86 2.09 2.08 2.09 2.10 2.01 2.27 2.38 2.29 1.95 1.92 1.77 1.65 1.71 1.91 2.17 2.60 3.04 3.34 3.77 4.25 4.62
1.22 1.25 1.36 1.43 1.51 1.56 1.53 1.90 1.79 1.82 1.91 1.83 1.74 2.07 1.97 1.71 1.87 2.00 2.21 2.41 2.29 2.18 2.26 2.18 2.15 2.13 2.27 2.36 2.41 2.32 2.00 1.99 1.77 1.60 1.50 1.49 1.57 1.78 2.15 2.47 2.79 3.13 3.53
1.28 1.31 1.37 1.55 1.67 1.70 1.73 1.96 1.90 1.87 2.00 1.82 1.81 1.98 1.94 1.88 1.87 1.85 2.20 2.52 2.66 2.48 2.37 2.29 2.07 1.96 2.04 2.15 2.19 1.90 1.74 1.82 1.70 1.54 1.45 1.41 1.40 1.48 1.61 1.75 1.83 1.91 2.06
1.42 1.53 1.57 1.69 1.77 1.72 1.71 1.89 1.88 1.95 2.03 1.93 1.93 2.00 1.95 1.93 2.02 1.95 2.09 2.33 2.54 2.73 2.56 2.13 1.96 1.87 1.84 1.67 1.77 1.59 1.58 1.75 1.63 1.48 1.43 1.42 1.42 1.43 1.42 1.45 1.51 1.53 1.56
1.49 1.56 1.66 1.77 1.75 1.78 1.87 1.98 1.84 1.89 2.02 2.22 2.13 2.12 2.18 2.28 2.25 2.16 2.22 2.30 2.44 2.71 2.67 2.20 2.10 2.11 1.97 1.76 1.69 1.61 1.57 1.64 1.65 1.72 1.57 1.46 1.37 1.29 1.28 1.28 1.31 1.37 1.41
1.70 1.69 1.77 1.82 1.68 1.70 1.89 1.94 1.91 1.95 2.01 2.07 2.27 2.50 2.44 2.45 2.40 2.24 2.33 2.29 2.35 2.64 2.57 2.34 2.36 2.37 2.31 2.10 1.94 1.77 1.60 1.58 1.66 1.86 1.62 1.46 1.38 1.31 1.28 1.28 1.27 1.26 1.27
1.96 2.05 2.05 1.88 1.78 1.75 1.82 1.92 2.02 2.04 2.07 2.15 2.31 2.40 2.43 2.58 2.46 2.36 2.29 2.24 2.33 2.50 2.60 2.43 2.40 2.55 2.45 2.22 2.07 1.82 1.63 1.69 1.52 1.64 1.61 1.52 1.48 1.40 1.34 1.28 1.25 1.24 1.21
2.02 2.17 2.12 2.02 1.97 1.87 1.75 1.72 1.77 1.86 2.03 2.20 2.25 2.18 2.26 2.49 2.54 2.53 2.35 2.30 2.40 2.53 2.59 2.53 2.45 2.55 2.58 2.51 2.35 2.12 2.00 1.84 1.66 1.54 1.61 1.51 1.48 1.41 1.34 1.25 1.21 1.20 1.22
1.94 2.11 2.16 2.16 2.10 1.94 1.71 1.75 1.88 1.89 2.07 2.10 2.05 1.94 1.92 2.13 2.38 2.46 2.24 2.24 2.36 2.39 2.39 2.43 2.44 2.49 2.54 2.68 2.55 2.28 2.04 1.90 1.68 1.51 1.52 1.40 1.35 1.27 1.30 1.30 1.23 1.15 1.09
2.33 2.36 2.29 2.23 2.14 1.78 1.88 1.90 1.88 1.94 2.08 2.10 2.05 1.97 1.83 1.81 1.83 1.97 2.08 2.20 2.33 2.29 2.30 2.46 2.62 2.67 2.65 2.66 2.66 2.45 2.18 1.95 1.79 1.59 1.63 1.62 1.53 1.46 1.29 1.18 1.23 1.15 1.07
2.69 2.71 2.60 2.42 2.26 2.16 2.07 1.83 1.78 1.70 1.77 1.83 1.90 1.90 1.61 1.45 1.56 1.49 1.66 1.82 1.94 2.02 2.05 2.21 2.38 2.49 2.61 2.75 2.79 2.56 2.37 2.18 1.93 1.73 1.70 1.59 1.49 1.46 1.35 1.29 1.37 1.21 1.14
2.61 2.64 2.58 2.45 2.33 2.24 2.09 1.73 1.65 1.46 1.51 1.55 1.61 1.62 1.57 1.49 1.47 1.53 1.54 1.53 1.51 1.58 1.69 1.71 1.84 2.09 2.34 2.56 2.73 2.64 2.54 2.25 1.95 1.72 1.65 1.53 1.39 1.36 1.29 1.31 1.41 1.30 1.18
2.35 2.25 2.21 2.22 2.19 2.21 2.13 1.79 1.60 1.41 1.51 1.54 1.57 1.60 1.63 1.56 1.69 1.58 1.51 1.55 1.56 1.57 1.60 1.64 1.66 1.82 2.08 2.26 2.38 2.48 2.44 2.28 2.02 1.78 1.69 1.68 1.50 1.42 1.37 1.23 1.22 1.27 1.15
2.27 2.20 2.10 2.11 2.10 2.08 2.11 1.75 1.57 1.45 1.54 1.56 1.61 1.62 1.62 1.51 1.53 1.41 1.34 1.48 1.48 1.50 1.56 1.56 1.58 1.59 1.68 1.99 2.31 2.16 2.18 2.21 2.00 1.72 1.48 1.53 1.52 1.53 1.43 1.14 1.01 1.00 0.97